Time,TemperatureF,DewpointF,PressureIn,WindDirection,WindDirectionDegrees,WindSpeedMPH,WindSpeedGustMPH,Humidity,HourlyPrecipIn,Conditions,Clouds,dailyrainin,SoftwareType,DateUTC
2013-06-01 00:00:00,77.2,75.0,29.96,North,32767,0.0,0.0,93,0.00,,,0.00,Wunderground v.1.15,2013-06-01 05:00:00,
2013-06-01 00:05:00,77.2,75.0,29.96,North,32767,0.0,0.0,93,0.00,,,0.00,Wunderground v.1.15,2013-06-01 05:05:00,
2013-06-01 00:10:00,77.3,75.1,29.96,North,32767,0.0,0.0,93,0.00,,,0.00,Wunderground v.1.15,2013-06-01 05:10:00,
2013-06-01 00:15:00,77.3,75.1,29.96,North,32767,0.0,0.0,93,0.00,,,0.00,Wunderground v.1.15,2013-06-01 05:15:00,
2013-06-01 00:20:00,77.3,75.1,29.96,North,32767,0.0,0.0,93,0.00,,,0.00,Wunderground v.1.15,2013-06-01 05:20:00,
2013-06-01 00:25:00,77.4,75.2,29.97,North,32767,0.0,0.0,93,0.00,,,0.00,Wunderground v.1.15,2013-06-01 05:25:00,
2013-06-01 00:30:00,77.4,75.2,29.96,North,32767,0.0,0.0,93,0.00,,,0.00,Wunderground v.1.15,2013-06-01 05:30:00,
2013-06-01 00:35:00,77.4,75.2,29.96,North,32767,0.0,0.0,93,0.00,,,0.00,Wunderground v.1.15,2013-06-01 05:35:00,
2013-06-01 00:40:00,77.4,75.2,29.96,North,32767,0.0,0.0,93,0.00,,,0.00,Wunderground v.1.15,2013-06-01 05:40:00,
2013-06-01 00:45:00,77.4,75.2,29.96,North,32767,0.0,0.0,93,0.00,,,0.00,Wunderground v.1.15,2013-06-01 05:45:00,
2013-06-01 00:50:00,77.3,75.1,29.96,North,32767,0.0,0.0,93,0.00,,,0.00,Wunderground v.1.15,2013-06-01 05:50:00,
2013-06-01 00:55:00,77.3,75.4,29.96,North,32767,0.0,0.0,94,0.00,,,0.00,Wunderground v.1.15,2013-06-01 05:55:00,
2013-06-01 01:00:00,77.4,75.5,29.96,North,32767,0.0,0.0,94,0.00,,,0.00,Wunderground v.1.15,2013-06-01 06:00:00,
2013-06-01 01:05:00,77.5,75.6,29.96,North,32767,0.0,0.0,94,0.00,,,0.00,Wunderground v.1.15,2013-06-01 06:05:00,
2013-06-01 01:10:00,77.5,75.6,29.96,North,32767,0.0,0.0,94,0.00,,,0.00,Wunderground v.1.15,2013-06-01 06:10:00,
2013-06-01 01:15:00,77.6,75.7,29.96,North,32767,0.0,0.0,94,0.00,,,0.00,Wunderground v.1.15,2013-06-01 06:15:00,
2013-06-01 01:20:00,77.6,75.7,29.96,North,32767,0.0,0.0,94,0.00,,,0.00,Wunderground v.1.15,2013-06-01 06:20:00,
2013-06-01 01:25:00,77.6,75.7,29.96,North,32767,0.0,0.0,94,0.00,,,0.00,Wunderground v.1.15,2013-06-01 06:25:00,
2013-06-01 01:30:00,77.6,75.7,29.96,North,32767,0.0,0.0,94,0.00,,,0.00,Wunderground v.1.15,2013-06-01 06:30:00,
2013-06-01 01:35:00,77.5,75.6,29.96,North,32767,0.0,0.0,94,0.00,,,0.00,Wunderground v.1.15,2013-06-01 06:35:00,
2013-06-01 01:40:00,77.4,75.2,29.96,North,32767,0.0,0.0,93,0.00,,,0.00,Wunderground v.1.15,2013-06-01 06:40:00,
2013-06-01 01:45:00,77.5,75.6,29.96,North,32767,0.0,0.0,94,0.00,,,0.00,Wunderground v.1.15,2013-06-01 06:45:00,
2013-06-01 01:50:00,77.6,75.7,29.96,North,32767,0.0,0.0,94,0.00,,,0.00,Wunderground v.1.15,2013-06-01 06:50:00,
2013-06-01 01:55:00,77.6,75.7,29.96,North,32767,0.0,0.0,94,0.00,,,0.00,Wunderground v.1.15,2013-06-01 06:55:00,
2013-06-01 02:05:00,77.7,75.8,29.96,North,32767,0.0,0.0,94,0.00,,,0.00,Wunderground v.1.15,2013-06-01 07:05:00,
2013-06-01 02:10:00,77.8,75.9,29.96,North,32767,0.0,0.0,94,0.00,,,0.00,Wunderground v.1.15,2013-06-01 07:10:00,
2013-06-01 02:15:00,77.8,75.9,29.96,North,32767,0.0,0.0,94,0.00,,,0.00,Wunderground v.1.15,2013-06-01 07:15:00,
2013-06-01 02:20:00,77.8,75.9,29.96,North,32767,0.0,0.0,94,0.00,,,0.00,Wunderground v.1.15,2013-06-01 07:20:00,
2013-06-01 02:25:00,77.8,75.9,29.96,North,32767,0.0,0.0,94,0.00,,,0.00,Wunderground v.1.15,2013-06-01 07:25:00,
2013-06-01 02:30:00,77.9,76.0,29.96,North,32767,0.0,0.0,94,0.00,,,0.00,Wunderground v.1.15,2013-06-01 07:30:00,
2013-06-01 02:35:00,77.8,75.6,29.96,North,32767,0.0,0.0,93,0.00,,,0.00,Wunderground v.1.15,2013-06-01 07:35:00,
2013-06-01 02:40:00,77.9,75.7,29.96,North,32767,0.0,0.0,93,0.00,,,0.00,Wunderground v.1.15,2013-06-01 07:40:00,
2013-06-01 02:45:00,77.9,75.7,29.96,North,32767,0.0,0.0,93,0.00,,,0.00,Wunderground v.1.15,2013-06-01 07:45:00,
2013-06-01 02:50:00,78.0,76.1,29.96,North,32767,0.0,0.0,94,0.00,,,0.00,Wunderground v.1.15,2013-06-01 07:50:00,
2013-06-01 02:55:00,78.0,76.1,29.96,North,32767,0.0,0.0,94,0.00,,,0.00,Wunderground v.1.15,2013-06-01 07:55:00,
2013-06-01 03:00:00,78.0,76.1,29.96,North,32767,0.0,0.0,94,0.00,,,0.00,Wunderground v.1.15,2013-06-01 08:00:00,
2013-06-01 03:05:00,78.0,76.1,29.96,North,32767,0.0,0.0,94,0.00,,,0.00,Wunderground v.1.15,2013-06-01 08:05:00,
2013-06-01 03:10:00,78.0,76.1,29.96,North,32767,0.0,0.0,94,0.00,,,0.00,Wunderground v.1.15,2013-06-01 08:10:00,
2013-06-01 03:15:00,78.0,76.1,29.95,North,32767,0.0,0.0,94,0.00,,,0.00,Wunderground v.1.15,2013-06-01 08:15:00,
2013-06-01 03:20:00,78.0,76.1,29.95,North,32767,0.0,0.0,94,0.00,,,0.00,Wunderground v.1.15,2013-06-01 08:20:00,
2013-06-01 03:25:00,78.0,76.1,29.95,North,32767,0.0,0.0,94,0.00,,,0.00,Wunderground v.1.15,2013-06-01 08:25:00,
2013-06-01 03:30:00,78.1,76.2,29.95,North,32767,0.0,0.0,94,0.00,,,0.00,Wunderground v.1.15,2013-06-01 08:30:00,
2013-06-01 03:35:00,78.1,76.2,29.95,North,32767,0.0,0.0,94,0.00,,,0.00,Wunderground v.1.15,2013-06-01 08:35:00,
2013-06-01 03:40:00,78.1,76.2,29.95,North,32767,0.0,0.0,94,0.00,,,0.00,Wunderground v.1.15,2013-06-01 08:40:00,
2013-06-01 03:45:00,78.1,75.9,29.95,North,32767,0.0,0.0,93,0.00,,,0.00,Wunderground v.1.15,2013-06-01 08:45:00,
2013-06-01 03:50:00,78.2,76.3,29.95,North,32767,0.0,0.0,94,0.00,,,0.00,Wunderground v.1.15,2013-06-01 08:50:00,
2013-06-01 04:00:00,78.2,76.3,29.95,North,32767,0.0,0.0,94,0.00,,,0.00,Wunderground v.1.15,2013-06-01 09:00:00,
2013-06-01 04:05:00,78.2,76.3,29.95,North,32767,0.0,0.0,94,0.00,,,0.00,Wunderground v.1.15,2013-06-01 09:05:00,
2013-06-01 04:10:00,78.2,76.3,29.95,North,32767,0.0,0.0,94,0.00,,,0.00,Wunderground v.1.15,2013-06-01 09:10:00,
2013-06-01 04:15:00,78.2,76.3,29.95,North,32767,0.0,0.0,94,0.00,,,0.00,Wunderground v.1.15,2013-06-01 09:15:00,
2013-06-01 04:20:00,78.1,76.2,29.94,North,32767,0.0,0.0,94,0.00,,,0.00,Wunderground v.1.15,2013-06-01 09:20:00,
2013-06-01 04:25:00,78.0,76.1,29.94,North,32767,0.0,0.0,94,0.00,,,0.00,Wunderground v.1.15,2013-06-01 09:25:00,
2013-06-01 04:30:00,77.9,76.0,29.95,North,32767,0.0,0.0,94,0.00,,,0.00,Wunderground v.1.15,2013-06-01 09:30:00,
2013-06-01 04:35:00,77.8,75.9,29.94,North,32767,0.0,0.0,94,0.00,,,0.00,Wunderground v.1.15,2013-06-01 09:35:00,
2013-06-01 04:40:00,77.6,76.1,29.94,North,32767,0.0,0.0,95,0.00,,,0.00,Wunderground v.1.15,2013-06-01 09:40:00,
2013-06-01 04:45:00,77.6,76.1,29.94,North,32767,0.0,0.0,95,0.00,,,0.00,Wunderground v.1.15,2013-06-01 09:45:00,
2013-06-01 04:50:00,77.5,76.0,29.94,North,32767,0.0,0.0,95,0.00,,,0.00,Wunderground v.1.15,2013-06-01 09:50:00,
2013-06-01 04:55:00,77.5,76.0,29.94,North,32767,0.0,0.0,95,0.00,,,0.00,Wunderground v.1.15,2013-06-01 09:55:00,
2013-06-01 05:00:00,77.5,76.0,29.94,North,32767,0.0,0.0,95,0.00,,,0.00,Wunderground v.1.15,2013-06-01 10:00:00,
2013-06-01 05:05:00,77.5,76.0,29.94,North,32767,0.0,0.0,95,0.00,,,0.00,Wunderground v.1.15,2013-06-01 10:05:00,
2013-06-01 05:10:00,77.6,76.1,29.94,North,32767,0.0,0.0,95,0.00,,,0.00,Wunderground v.1.15,2013-06-01 10:10:00,
2013-06-01 05:15:00,77.6,76.1,29.94,North,32767,0.0,0.0,95,0.00,,,0.00,Wunderground v.1.15,2013-06-01 10:15:00,
2013-06-01 05:20:00,77.7,76.2,29.94,North,32767,0.0,0.0,95,0.00,,,0.00,Wunderground v.1.15,2013-06-01 10:20:00,
2013-06-01 05:25:00,77.6,76.1,29.94,North,32767,0.0,0.0,95,0.00,,,0.00,Wunderground v.1.15,2013-06-01 10:25:00,
2013-06-01 05:30:00,77.5,76.0,29.94,North,32767,0.0,0.0,95,0.00,,,0.00,Wunderground v.1.15,2013-06-01 10:30:00,
2013-06-01 05:35:00,77.5,76.0,29.94,North,32767,0.0,0.0,95,0.00,,,0.00,Wunderground v.1.15,2013-06-01 10:35:00,
2013-06-01 05:40:00,77.5,76.0,29.94,North,32767,0.0,0.0,95,0.00,,,0.00,Wunderground v.1.15,2013-06-01 10:40:00,
2013-06-01 05:45:00,77.4,75.9,29.94,North,32767,0.0,0.0,95,0.00,,,0.00,Wunderground v.1.15,2013-06-01 10:45:00,
2013-06-01 05:50:00,77.5,76.0,29.94,North,32767,0.0,0.0,95,0.00,,,0.00,Wunderground v.1.15,2013-06-01 10:50:00,
2013-06-01 05:55:00,77.5,76.0,29.94,North,32767,0.0,0.0,95,0.00,,,0.00,Wunderground v.1.15,2013-06-01 10:55:00,
2013-06-01 06:00:00,77.5,76.0,29.94,North,32767,0.0,0.0,95,0.00,,,0.00,Wunderground v.1.15,2013-06-01 11:00:00,
2013-06-01 06:05:00,77.5,76.0,29.94,North,32767,0.0,0.0,95,0.00,,,0.00,Wunderground v.1.15,2013-06-01 11:05:00,
2013-06-01 06:15:00,77.6,76.1,29.94,North,32767,0.0,0.0,95,0.00,,,0.00,Wunderground v.1.15,2013-06-01 11:15:00,
2013-06-01 06:20:00,77.7,76.2,29.95,North,32767,0.0,0.0,95,0.00,,,0.00,Wunderground v.1.15,2013-06-01 11:20:00,
2013-06-01 06:25:00,77.8,76.3,29.95,North,32767,0.0,0.0,95,0.00,,,0.00,Wunderground v.1.15,2013-06-01 11:25:00,
2013-06-01 06:30:00,77.8,76.3,29.95,North,32767,0.0,0.0,95,0.00,,,0.00,Wunderground v.1.15,2013-06-01 11:30:00,
2013-06-01 06:35:00,77.9,76.4,29.95,North,32767,0.0,0.0,95,0.00,,,0.00,Wunderground v.1.15,2013-06-01 11:35:00,
2013-06-01 06:40:00,77.9,76.4,29.95,North,32767,0.0,0.0,95,0.00,,,0.00,Wunderground v.1.15,2013-06-01 11:40:00,
2013-06-01 06:45:00,77.9,76.4,29.95,North,32767,0.0,0.0,95,0.00,,,0.00,Wunderground v.1.15,2013-06-01 11:45:00,
2013-06-01 06:50:00,77.9,76.4,29.94,North,32767,0.0,0.0,95,0.00,,,0.00,Wunderground v.1.15,2013-06-01 11:50:00,
2013-06-01 06:55:00,78.0,76.5,29.95,North,32767,0.0,0.0,95,0.00,,,0.00,Wunderground v.1.15,2013-06-01 11:55:00,
2013-06-01 07:00:00,78.0,76.5,29.95,North,32767,0.0,0.0,95,0.00,,,0.00,Wunderground v.1.15,2013-06-01 12:00:00,
2013-06-01 07:05:00,78.1,76.6,29.95,North,32767,0.0,0.0,95,0.00,,,0.00,Wunderground v.1.15,2013-06-01 12:05:00,
2013-06-01 07:10:00,78.1,76.6,29.95,North,32767,0.0,0.0,95,0.00,,,0.00,Wunderground v.1.15,2013-06-01 12:10:00,
2013-06-01 07:15:00,78.1,76.6,29.95,North,32767,0.0,0.0,95,0.00,,,0.00,Wunderground v.1.15,2013-06-01 12:15:00,
2013-06-01 07:20:00,78.4,76.8,29.95,North,32767,0.0,0.0,95,0.00,,,0.00,Wunderground v.1.15,2013-06-01 12:20:00,
2013-06-01 07:25:00,78.7,77.1,29.95,North,32767,0.0,0.0,95,0.00,,,0.00,Wunderground v.1.15,2013-06-01 12:25:00,
2013-06-01 07:30:00,78.8,76.9,29.95,North,32767,0.0,0.0,94,0.00,,,0.00,Wunderground v.1.15,2013-06-01 12:30:00,
2013-06-01 07:35:00,79.1,77.5,29.96,North,32767,0.0,0.0,95,0.00,,,0.00,Wunderground v.1.15,2013-06-01 12:35:00,
2013-06-01 07:40:00,79.3,77.4,29.96,North,32767,0.0,0.0,94,0.00,,,0.00,Wunderground v.1.15,2013-06-01 12:40:00,
2013-06-01 07:50:00,79.7,77.8,29.96,North,32767,0.0,0.0,94,0.00,,,0.00,Wunderground v.1.15,2013-06-01 12:50:00,
2013-06-01 07:55:00,80.0,78.1,29.96,North,32767,0.0,0.0,94,0.00,,,0.00,Wunderground v.1.15,2013-06-01 12:55:00,
2013-06-01 08:00:00,80.0,77.8,29.96,North,32767,0.0,0.0,93,0.00,,,0.00,Wunderground v.1.15,2013-06-01 13:00:00,
2013-06-01 08:05:00,80.0,77.8,29.96,North,32767,0.0,0.0,93,0.00,,,0.00,Wunderground v.1.15,2013-06-01 13:05:00,
2013-06-01 08:15:00,80.1,78.2,29.96,North,32767,0.0,0.0,94,0.00,,,0.00,Wunderground v.1.15,2013-06-01 13:15:00,
2013-06-01 08:20:00,80.2,78.0,29.96,North,32767,0.0,0.0,93,0.00,,,0.00,Wunderground v.1.15,2013-06-01 13:20:00,
2013-06-01 08:25:00,80.2,78.0,29.96,North,32767,0.0,0.0,93,0.00,,,0.00,Wunderground v.1.15,2013-06-01 13:25:00,
2013-06-01 08:30:00,80.4,78.2,29.97,North,32767,0.0,0.0,93,0.00,,,0.00,Wunderground v.1.15,2013-06-01 13:30:00,
2013-06-01 08:40:00,80.5,78.3,29.97,North,32767,0.0,0.0,93,0.00,,,0.00,Wunderground v.1.15,2013-06-01 13:40:00,
2013-06-01 08:45:00,80.6,78.4,29.97,North,32767,0.0,0.0,93,0.00,,,0.00,Wunderground v.1.15,2013-06-01 13:45:00,
2013-06-01 08:50:00,80.6,78.4,29.97,North,32767,0.0,0.0,93,0.00,,,0.00,Wunderground v.1.15,2013-06-01 13:50:00,
2013-06-01 08:55:00,80.5,78.3,29.98,North,32767,0.0,0.0,93,0.00,,,0.00,Wunderground v.1.15,2013-06-01 13:55:00,
2013-06-01 09:00:00,80.6,78.4,29.98,North,32767,0.0,0.0,93,0.00,,,0.00,Wunderground v.1.15,2013-06-01 14:00:00,
2013-06-01 09:05:00,80.6,78.4,29.98,North,32767,0.0,0.0,93,0.00,,,0.00,Wunderground v.1.15,2013-06-01 14:05:00,
2013-06-01 09:15:00,80.3,78.1,29.98,North,32767,0.0,0.0,93,0.00,,,0.00,Wunderground v.1.15,2013-06-01 14:15:00,
2013-06-01 09:20:00,80.4,78.2,29.97,North,32767,0.0,0.0,93,0.00,,,0.00,Wunderground v.1.15,2013-06-01 14:20:00,
2013-06-01 09:25:00,80.7,78.5,29.97,North,32767,0.0,0.0,93,0.00,,,0.00,Wunderground v.1.15,2013-06-01 14:25:00,
2013-06-01 09:30:00,80.8,78.6,29.97,North,32767,0.0,0.0,93,0.00,,,0.00,Wunderground v.1.15,2013-06-01 14:30:00,
2013-06-01 09:35:00,81.1,78.6,29.98,North,32767,0.0,0.0,92,0.00,,,0.00,Wunderground v.1.15,2013-06-01 14:35:00,
2013-06-01 09:40:00,81.4,78.9,29.98,North,32767,0.0,0.0,92,0.00,,,0.00,Wunderground v.1.15,2013-06-01 14:40:00,
2013-06-01 09:45:00,81.7,79.1,29.98,North,32767,0.0,0.0,92,0.00,,,0.00,Wunderground v.1.15,2013-06-01 14:45:00,
2013-06-01 09:50:00,81.8,79.2,29.98,North,32767,0.0,0.0,92,0.00,,,0.00,Wunderground v.1.15,2013-06-01 14:50:00,
2013-06-01 09:55:00,81.9,79.3,29.98,North,32767,0.0,0.0,92,0.00,,,0.00,Wunderground v.1.15,2013-06-01 14:55:00,
2013-06-01 10:00:00,81.9,79.3,29.98,North,32767,0.0,0.0,92,0.00,,,0.00,Wunderground v.1.15,2013-06-01 15:00:00,
2013-06-01 10:05:00,82.0,79.1,29.98,North,32767,0.0,0.0,91,0.00,,,0.00,Wunderground v.1.15,2013-06-01 15:05:00,
2013-06-01 10:10:00,82.1,79.5,29.98,North,32767,0.0,0.0,92,0.00,,,0.00,Wunderground v.1.15,2013-06-01 15:10:00,
2013-06-01 10:15:00,82.1,79.5,29.97,North,32767,0.0,0.0,92,0.00,,,0.00,Wunderground v.1.15,2013-06-01 15:15:00,
2013-06-01 10:20:00,82.3,79.4,29.98,North,32767,0.0,0.0,91,0.00,,,0.00,Wunderground v.1.15,2013-06-01 15:20:00,
2013-06-01 10:25:00,82.1,79.2,29.98,North,32767,0.0,0.0,91,0.00,,,0.00,Wunderground v.1.15,2013-06-01 15:25:00,
2013-06-01 10:30:00,81.9,79.3,29.98,North,32767,0.0,0.0,92,0.00,,,0.00,Wunderground v.1.15,2013-06-01 15:30:00,
2013-06-01 10:35:00,81.4,78.9,29.98,North,32767,0.0,0.0,92,0.00,,,0.00,Wunderground v.1.15,2013-06-01 15:35:00,
2013-06-01 10:40:00,81.1,78.9,29.98,North,32767,0.0,0.0,93,0.00,,,0.00,Wunderground v.1.15,2013-06-01 15:40:00,
2013-06-01 10:45:00,81.5,79.3,29.98,North,32767,0.0,0.0,93,0.00,,,0.00,Wunderground v.1.15,2013-06-01 15:45:00,
2013-06-01 10:50:00,81.6,79.0,29.98,North,32767,0.0,0.0,92,0.00,,,0.00,Wunderground v.1.15,2013-06-01 15:50:00,
2013-06-01 10:55:00,81.1,78.6,29.98,North,32767,0.0,0.0,92,0.00,,,0.00,Wunderground v.1.15,2013-06-01 15:55:00,
2013-06-01 11:00:00,81.0,78.8,29.98,North,32767,0.0,0.0,93,0.00,,,0.00,Wunderground v.1.15,2013-06-01 16:00:00,
2013-06-01 11:05:00,81.4,79.2,29.99,North,32767,0.0,0.0,93,0.00,,,0.00,Wunderground v.1.15,2013-06-01 16:05:00,
2013-06-01 11:15:00,81.4,78.9,29.98,North,32767,0.0,0.0,92,0.00,,,0.00,Wunderground v.1.15,2013-06-01 16:15:00,
2013-06-01 11:25:00,82.1,79.2,29.99,North,32767,0.0,0.0,91,0.00,,,0.00,Wunderground v.1.15,2013-06-01 16:25:00,
2013-06-01 11:30:00,82.0,79.4,29.99,North,32767,0.0,0.0,92,0.00,,,0.00,Wunderground v.1.15,2013-06-01 16:30:00,
2013-06-01 11:35:00,81.9,79.3,29.99,North,32767,0.0,0.0,92,0.00,,,0.00,Wunderground v.1.15,2013-06-01 16:35:00,
2013-06-01 11:40:00,82.0,79.4,29.99,North,32767,0.0,0.0,92,0.00,,,0.00,Wunderground v.1.15,2013-06-01 16:40:00,
2013-06-01 11:45:00,82.2,79.3,29.99,North,32767,0.0,0.0,91,0.00,,,0.00,Wunderground v.1.15,2013-06-01 16:45:00,
2013-06-01 11:50:00,82.3,79.4,29.99,North,32767,0.0,0.0,91,0.00,,,0.00,Wunderground v.1.15,2013-06-01 16:50:00,
2013-06-01 11:55:00,82.3,79.4,29.99,North,32767,0.0,0.0,91,0.00,,,0.00,Wunderground v.1.15,2013-06-01 16:55:00,
2013-06-01 12:00:00,81.7,79.1,30.00,North,32767,0.0,0.0,92,0.00,,,0.00,Wunderground v.1.15,2013-06-01 17:00:00,
2013-06-01 12:05:00,80.9,78.7,30.00,North,32767,0.0,0.0,93,0.00,,,0.00,Wunderground v.1.15,2013-06-01 17:05:00,
2013-06-01 12:10:00,80.5,78.3,30.00,North,32767,0.0,0.0,93,0.00,,,0.00,Wunderground v.1.15,2013-06-01 17:10:00,
2013-06-01 12:15:00,80.3,78.1,30.00,North,32767,0.0,0.0,93,0.00,,,0.00,Wunderground v.1.15,2013-06-01 17:15:00,
2013-06-01 12:20:00,80.4,78.2,30.00,North,32767,0.0,0.0,93,0.00,,,0.00,Wunderground v.1.15,2013-06-01 17:20:00,
2013-06-01 12:25:00,80.8,78.6,29.99,North,32767,0.0,0.0,93,0.00,,,0.00,Wunderground v.1.15,2013-06-01 17:25:00,
2013-06-01 12:30:00,81.4,79.2,29.99,North,32767,0.0,0.0,93,0.00,,,0.00,Wunderground v.1.15,2013-06-01 17:30:00,
2013-06-01 12:35:00,82.0,79.4,30.00,North,32767,0.0,0.0,92,0.00,,,0.00,Wunderground v.1.15,2013-06-01 17:35:00,
2013-06-01 12:40:00,82.5,79.6,30.00,North,32767,0.0,0.0,91,0.00,,,0.00,Wunderground v.1.15,2013-06-01 17:40:00,
2013-06-01 12:45:00,82.8,79.9,30.00,North,32767,0.0,0.0,91,0.00,,,0.00,Wunderground v.1.15,2013-06-01 17:45:00,
2013-06-01 12:50:00,82.6,79.7,29.99,North,32767,0.0,0.0,91,0.00,,,0.00,Wunderground v.1.15,2013-06-01 17:50:00,
2013-06-01 12:55:00,82.8,79.9,29.99,North,32767,0.0,0.0,91,0.00,,,0.00,Wunderground v.1.15,2013-06-01 17:55:00,
2013-06-01 13:00:00,83.4,80.2,30.00,North,32767,0.0,0.0,90,0.00,,,0.00,Wunderground v.1.15,2013-06-01 18:00:00,
2013-06-01 13:05:00,83.8,80.6,29.99,North,32767,0.0,0.0,90,0.00,,,0.00,Wunderground v.1.15,2013-06-01 18:05:00,
2013-06-01 13:10:00,83.7,80.1,30.00,North,32767,0.0,0.0,89,0.00,,,0.00,Wunderground v.1.15,2013-06-01 18:10:00,
2013-06-01 13:15:00,83.7,80.5,29.99,North,32767,0.0,0.0,90,0.00,,,0.00,Wunderground v.1.15,2013-06-01 18:15:00,
2013-06-01 13:20:00,83.7,80.1,29.99,North,32767,0.0,0.0,89,0.00,,,0.00,Wunderground v.1.15,2013-06-01 18:20:00,
2013-06-01 13:25:00,83.6,80.0,29.99,North,32767,0.0,0.0,89,0.00,,,0.00,Wunderground v.1.15,2013-06-01 18:25:00,
2013-06-01 13:30:00,84.0,80.7,29.99,North,32767,0.0,0.0,90,0.00,,,0.00,Wunderground v.1.15,2013-06-01 18:30:00,
2013-06-01 13:35:00,84.1,80.2,29.99,North,32767,0.0,0.0,88,0.00,,,0.00,Wunderground v.1.15,2013-06-01 18:35:00,
2013-06-01 13:40:00,84.2,80.6,29.99,North,32767,0.0,0.0,89,0.00,,,0.00,Wunderground v.1.15,2013-06-01 18:40:00,
2013-06-01 13:45:00,84.4,80.8,29.99,North,32767,0.0,0.0,89,0.00,,,0.00,Wunderground v.1.15,2013-06-01 18:45:00,
2013-06-01 13:50:00,84.1,80.2,29.99,North,32767,0.0,0.0,88,0.00,,,0.00,Wunderground v.1.15,2013-06-01 18:50:00,
2013-06-01 13:55:00,83.8,80.2,29.99,North,32767,0.0,0.0,89,0.00,,,0.00,Wunderground v.1.15,2013-06-01 18:55:00,
2013-06-01 14:00:00,83.7,80.5,29.99,North,32767,0.0,0.0,90,0.00,,,0.00,Wunderground v.1.15,2013-06-01 19:00:00,
2013-06-01 14:05:00,83.9,80.3,29.99,North,32767,0.0,0.0,89,0.00,,,0.00,Wunderground v.1.15,2013-06-01 19:05:00,
2013-06-01 14:10:00,83.8,80.2,29.99,North,32767,0.0,0.0,89,0.00,,,0.00,Wunderground v.1.15,2013-06-01 19:10:00,
2013-06-01 14:15:00,83.8,79.9,29.99,North,32767,0.0,0.0,88,0.00,,,0.00,Wunderground v.1.15,2013-06-01 19:15:00,
2013-06-01 14:20:00,83.6,80.0,29.99,North,32767,0.0,0.0,89,0.00,,,0.00,Wunderground v.1.15,2013-06-01 19:20:00,
2013-06-01 14:25:00,83.6,80.4,29.99,North,32767,0.0,0.0,90,0.00,,,0.00,Wunderground v.1.15,2013-06-01 19:25:00,
2013-06-01 14:30:00,83.4,79.8,29.99,North,32767,0.0,0.0,89,0.00,,,0.00,Wunderground v.1.15,2013-06-01 19:30:00,
2013-06-01 14:35:00,83.2,80.0,29.99,North,32767,0.0,0.0,90,0.00,,,0.00,Wunderground v.1.15,2013-06-01 19:35:00,
2013-06-01 14:40:00,83.3,80.1,29.99,North,32767,0.0,0.0,90,0.00,,,0.00,Wunderground v.1.15,2013-06-01 19:40:00,
2013-06-01 14:45:00,83.6,80.4,29.98,North,32767,0.0,0.0,90,0.00,,,0.00,Wunderground v.1.15,2013-06-01 19:45:00,
2013-06-01 14:50:00,83.6,80.0,29.98,North,32767,0.0,0.0,89,0.00,,,0.00,Wunderground v.1.15,2013-06-01 19:50:00,
2013-06-01 14:55:00,83.6,80.0,29.98,North,32767,0.0,0.0,89,0.00,,,0.00,Wunderground v.1.15,2013-06-01 19:55:00,
2013-06-01 15:00:00,83.5,79.9,29.98,North,32767,0.0,0.0,89,0.00,,,0.00,Wunderground v.1.15,2013-06-01 20:00:00,
2013-06-01 15:05:00,83.6,80.0,29.98,North,32767,0.0,0.0,89,0.00,,,0.00,Wunderground v.1.15,2013-06-01 20:05:00,
2013-06-01 15:10:00,83.8,79.9,29.98,North,32767,0.0,0.0,88,0.00,,,0.00,Wunderground v.1.15,2013-06-01 20:10:00,
2013-06-01 15:15:00,83.7,80.1,29.98,North,32767,0.0,0.0,89,0.00,,,0.00,Wunderground v.1.15,2013-06-01 20:15:00,
2013-06-01 15:20:00,83.6,80.0,29.97,North,32767,0.0,0.0,89,0.00,,,0.00,Wunderground v.1.15,2013-06-01 20:20:00,
2013-06-01 15:25:00,83.5,79.9,29.97,North,32767,0.0,0.0,89,0.00,,,0.00,Wunderground v.1.15,2013-06-01 20:25:00,
2013-06-01 15:30:00,83.3,79.7,29.97,North,32767,0.0,0.0,89,0.00,,,0.00,Wunderground v.1.15,2013-06-01 20:30:00,
2013-06-01 15:35:00,82.8,79.6,29.97,North,32767,0.0,0.0,90,0.00,,,0.00,Wunderground v.1.15,2013-06-01 20:35:00,
2013-06-01 15:40:00,82.6,79.4,29.97,North,32767,0.0,0.0,90,0.00,,,0.00,Wunderground v.1.15,2013-06-01 20:40:00,
2013-06-01 15:45:00,82.3,79.1,29.96,North,32767,0.0,0.0,90,0.00,,,0.00,Wunderground v.1.15,2013-06-01 20:45:00,
2013-06-01 15:50:00,82.0,79.1,29.96,North,32767,0.0,0.0,91,0.00,,,0.00,Wunderground v.1.15,2013-06-01 20:50:00,
2013-06-01 15:55:00,81.7,78.8,29.96,North,32767,0.0,0.0,91,0.00,,,0.00,Wunderground v.1.15,2013-06-01 20:55:00,
2013-06-01 16:00:00,81.6,78.7,29.96,North,32767,0.0,0.0,91,0.00,,,0.00,Wunderground v.1.15,2013-06-01 21:00:00,
2013-06-01 16:05:00,81.4,78.5,29.96,North,32767,0.0,0.0,91,0.00,,,0.00,Wunderground v.1.15,2013-06-01 21:05:00,
2013-06-01 16:15:00,81.3,78.8,29.95,North,32767,0.0,0.0,92,0.00,,,0.00,Wunderground v.1.15,2013-06-01 21:15:00,
2013-06-01 16:20:00,81.3,78.8,29.95,North,32767,0.0,0.0,92,0.00,,,0.00,Wunderground v.1.15,2013-06-01 21:20:00,
2013-06-01 16:25:00,81.3,78.8,29.95,North,32767,0.0,0.0,92,0.00,,,0.00,Wunderground v.1.15,2013-06-01 21:25:00,
2013-06-01 16:30:00,81.5,78.9,29.95,North,32767,0.0,0.0,92,0.00,,,0.00,Wunderground v.1.15,2013-06-01 21:30:00,
2013-06-01 16:35:00,81.8,79.2,29.94,North,32767,0.0,0.0,92,0.00,,,0.00,Wunderground v.1.15,2013-06-01 21:35:00,
2013-06-01 16:40:00,82.4,79.5,29.94,North,32767,0.0,0.0,91,0.00,,,0.00,Wunderground v.1.15,2013-06-01 21:40:00,
2013-06-01 16:45:00,82.5,79.3,29.94,North,32767,0.0,0.0,90,0.00,,,0.00,Wunderground v.1.15,2013-06-01 21:45:00,
2013-06-01 16:50:00,82.3,79.4,29.94,North,32767,0.0,0.0,91,0.00,,,0.00,Wunderground v.1.15,2013-06-01 21:50:00,
2013-06-01 17:00:00,81.8,78.9,29.94,North,32767,0.0,0.0,91,0.00,,,0.00,Wunderground v.1.15,2013-06-01 22:00:00,
2013-06-01 17:05:00,81.4,78.9,29.94,North,32767,0.0,0.0,92,0.00,,,0.00,Wunderground v.1.15,2013-06-01 22:05:00,
2013-06-01 17:15:00,81.4,78.9,29.94,North,32767,0.0,0.0,92,0.00,,,0.00,Wunderground v.1.15,2013-06-01 22:15:00,
2013-06-01 17:20:00,81.5,78.9,29.94,North,32767,0.0,0.0,92,0.00,,,0.00,Wunderground v.1.15,2013-06-01 22:20:00,
2013-06-01 17:25:00,81.5,78.9,29.94,North,32767,0.0,0.0,92,0.00,,,0.00,Wunderground v.1.15,2013-06-01 22:25:00,
2013-06-01 17:30:00,81.5,78.9,29.94,North,32767,0.0,0.0,92,0.00,,,0.00,Wunderground v.1.15,2013-06-01 22:30:00,
2013-06-01 17:35:00,81.3,78.8,29.94,North,32767,0.0,0.0,92,0.00,,,0.00,Wunderground v.1.15,2013-06-01 22:35:00,
2013-06-01 17:40:00,81.2,78.7,29.94,North,32767,0.0,0.0,92,0.00,,,0.00,Wunderground v.1.15,2013-06-01 22:40:00,
2013-06-01 17:45:00,81.2,78.7,29.94,North,32767,0.0,0.0,92,0.00,,,0.00,Wunderground v.1.15,2013-06-01 22:45:00,
2013-06-01 17:50:00,81.2,78.7,29.94,North,32767,0.0,0.0,92,0.00,,,0.00,Wunderground v.1.15,2013-06-01 22:50:00,
2013-06-01 17:55:00,81.2,78.7,29.94,North,32767,0.0,0.0,92,0.00,,,0.00,Wunderground v.1.15,2013-06-01 22:55:00,
2013-06-01 18:00:00,81.2,78.7,29.94,North,32767,0.0,0.0,92,0.00,,,0.00,Wunderground v.1.15,2013-06-01 23:00:00,
2013-06-01 18:05:00,81.1,78.6,29.94,North,32767,0.0,0.0,92,0.00,,,0.00,Wunderground v.1.15,2013-06-01 23:05:00,
2013-06-01 18:15:00,80.9,78.4,29.94,North,32767,0.0,0.0,92,0.00,,,0.00,Wunderground v.1.15,2013-06-01 23:15:00,
2013-06-01 18:20:00,80.8,78.3,29.94,North,32767,0.0,0.0,92,0.00,,,0.00,Wunderground v.1.15,2013-06-01 23:20:00,
2013-06-01 18:25:00,80.8,78.6,29.94,North,32767,0.0,0.0,93,0.00,,,0.00,Wunderground v.1.15,2013-06-01 23:25:00,
2013-06-01 18:30:00,80.7,78.2,29.94,North,32767,0.0,0.0,92,0.00,,,0.00,Wunderground v.1.15,2013-06-01 23:30:00,
2013-06-01 18:35:00,80.6,78.1,29.94,North,32767,0.0,0.0,92,0.00,,,0.00,Wunderground v.1.15,2013-06-01 23:35:00,
2013-06-01 18:40:00,80.5,78.0,29.94,North,32767,0.0,0.0,92,0.00,,,0.00,Wunderground v.1.15,2013-06-01 23:40:00,
2013-06-01 18:45:00,80.4,77.9,29.94,North,32767,0.0,0.0,92,0.00,,,0.00,Wunderground v.1.15,2013-06-01 23:45:00,
2013-06-01 18:50:00,80.3,77.8,29.94,North,32767,0.0,0.0,92,0.00,,,0.00,Wunderground v.1.15,2013-06-01 23:50:00,
2013-06-01 18:55:00,80.3,78.1,29.93,North,32767,0.0,0.0,93,0.00,,,0.00,Wunderground v.1.15,2013-06-01 23:55:00,
2013-06-01 19:05:00,80.1,77.9,29.93,North,32767,0.0,0.0,93,0.00,,,0.00,Wunderground v.1.15,2013-06-02 00:05:00,
2013-06-01 19:10:00,80.0,77.8,29.93,North,32767,0.0,0.0,93,0.00,,,0.00,Wunderground v.1.15,2013-06-02 00:10:00,
2013-06-01 19:15:00,80.0,77.8,29.93,North,32767,0.0,0.0,93,0.00,,,0.00,Wunderground v.1.15,2013-06-02 00:15:00,
2013-06-01 19:20:00,79.9,77.7,29.93,North,32767,0.0,0.0,93,0.00,,,0.00,Wunderground v.1.15,2013-06-02 00:20:00,
2013-06-01 19:25:00,79.8,77.6,29.93,North,32767,0.0,0.0,93,0.00,,,0.00,Wunderground v.1.15,2013-06-02 00:25:00,
2013-06-01 19:30:00,79.7,77.5,29.93,North,32767,0.0,0.0,93,0.00,,,0.00,Wunderground v.1.15,2013-06-02 00:30:00,
2013-06-01 19:35:00,79.6,77.4,29.93,North,32767,0.0,0.0,93,0.00,,,0.00,Wunderground v.1.15,2013-06-02 00:35:00,
2013-06-01 19:40:00,79.5,77.3,29.93,North,32767,0.0,0.0,93,0.00,,,0.00,Wunderground v.1.15,2013-06-02 00:40:00,
2013-06-01 19:45:00,79.4,77.2,29.93,North,32767,0.0,0.0,93,0.00,,,0.00,Wunderground v.1.15,2013-06-02 00:45:00,
2013-06-01 19:50:00,79.4,77.5,29.93,North,32767,0.0,0.0,94,0.00,,,0.00,Wunderground v.1.15,2013-06-02 00:50:00,
2013-06-01 19:55:00,79.3,77.4,29.93,North,32767,0.0,0.0,94,0.00,,,0.00,Wunderground v.1.15,2013-06-02 00:55:00,
2013-06-01 20:00:00,79.2,77.0,29.93,North,32767,0.0,0.0,93,0.00,,,0.00,Wunderground v.1.15,2013-06-02 01:00:00,
2013-06-01 20:05:00,79.2,77.3,29.93,North,32767,0.0,0.0,94,0.00,,,0.00,Wunderground v.1.15,2013-06-02 01:05:00,
2013-06-01 20:15:00,79.2,77.3,29.93,North,32767,0.0,0.0,94,0.00,,,0.00,Wunderground v.1.15,2013-06-02 01:15:00,
2013-06-01 20:20:00,79.1,77.2,29.93,North,32767,0.0,0.0,94,0.00,,,0.00,Wunderground v.1.15,2013-06-02 01:20:00,
2013-06-01 20:25:00,79.1,77.2,29.93,North,32767,0.0,0.0,94,0.00,,,0.00,Wunderground v.1.15,2013-06-02 01:25:00,
2013-06-01 20:35:00,79.0,77.1,29.93,North,32767,0.0,0.0,94,0.00,,,0.00,Wunderground v.1.15,2013-06-02 01:35:00,
2013-06-01 20:40:00,78.9,77.0,29.94,North,32767,0.0,0.0,94,0.00,,,0.00,Wunderground v.1.15,2013-06-02 01:40:00,
2013-06-01 20:45:00,78.9,77.0,29.94,North,32767,0.0,0.0,94,0.00,,,0.00,Wunderground v.1.15,2013-06-02 01:45:00,
2013-06-01 20:50:00,78.9,77.0,29.94,North,32767,0.0,0.0,94,0.00,,,0.00,Wunderground v.1.15,2013-06-02 01:50:00,
2013-06-01 20:55:00,78.8,76.9,29.94,North,32767,0.0,0.0,94,0.00,,,0.00,Wunderground v.1.15,2013-06-02 01:55:00,
2013-06-01 21:00:00,78.8,76.9,29.94,North,32767,0.0,0.0,94,0.00,,,0.00,Wunderground v.1.15,2013-06-02 02:00:00,
2013-06-01 21:05:00,78.7,76.8,29.94,North,32767,0.0,0.0,94,0.00,,,0.00,Wunderground v.1.15,2013-06-02 02:05:00,
2013-06-01 21:10:00,78.7,76.8,29.95,North,32767,0.0,0.0,94,0.00,,,0.00,Wunderground v.1.15,2013-06-02 02:10:00,
2013-06-01 21:15:00,78.7,76.8,29.95,North,32767,0.0,0.0,94,0.00,,,0.00,Wunderground v.1.15,2013-06-02 02:15:00,
2013-06-01 21:20:00,78.7,76.8,29.94,North,32767,0.0,0.0,94,0.00,,,0.00,Wunderground v.1.15,2013-06-02 02:20:00,
2013-06-01 21:25:00,78.7,76.8,29.94,North,32767,0.0,0.0,94,0.00,,,0.00,Wunderground v.1.15,2013-06-02 02:25:00,
2013-06-01 21:30:00,78.7,76.8,29.94,North,32767,0.0,0.0,94,0.00,,,0.00,Wunderground v.1.15,2013-06-02 02:30:00,
2013-06-01 21:35:00,78.6,76.7,29.95,North,32767,0.0,0.0,94,0.00,,,0.00,Wunderground v.1.15,2013-06-02 02:35:00,
2013-06-01 21:40:00,78.6,76.7,29.95,North,32767,0.0,0.0,94,0.00,,,0.00,Wunderground v.1.15,2013-06-02 02:40:00,
2013-06-01 21:50:00,78.5,76.6,29.95,North,32767,0.0,0.0,94,0.00,,,0.00,Wunderground v.1.15,2013-06-02 02:50:00,
2013-06-01 21:55:00,78.5,76.6,29.95,North,32767,0.0,0.0,94,0.00,,,0.00,Wunderground v.1.15,2013-06-02 02:55:00,
2013-06-01 22:00:00,78.5,76.6,29.95,North,32767,0.0,0.0,94,0.00,,,0.00,Wunderground v.1.15,2013-06-02 03:00:00,
2013-06-01 22:05:00,78.4,76.5,29.95,North,32767,0.0,0.0,94,0.00,,,0.00,Wunderground v.1.15,2013-06-02 03:05:00,
2013-06-01 22:15:00,78.4,76.5,29.95,North,32767,0.0,0.0,94,0.00,,,0.00,Wunderground v.1.15,2013-06-02 03:15:00,
2013-06-01 22:20:00,78.3,76.4,29.96,North,32767,0.0,0.0,94,0.00,,,0.00,Wunderground v.1.15,2013-06-02 03:20:00,
2013-06-01 22:25:00,78.4,76.5,29.96,North,32767,0.0,0.0,94,0.00,,,0.00,Wunderground v.1.15,2013-06-02 03:25:00,
2013-06-01 22:30:00,78.4,76.5,29.96,North,32767,0.0,0.0,94,0.00,,,0.00,Wunderground v.1.15,2013-06-02 03:30:00,
2013-06-01 22:35:00,78.3,76.4,29.96,North,32767,0.0,0.0,94,0.00,,,0.00,Wunderground v.1.15,2013-06-02 03:35:00,
2013-06-01 22:45:00,78.3,76.4,29.96,North,32767,0.0,0.0,94,0.00,,,0.00,Wunderground v.1.15,2013-06-02 03:45:00,
2013-06-01 22:50:00,78.2,76.3,29.96,North,32767,0.0,0.0,94,0.00,,,0.00,Wunderground v.1.15,2013-06-02 03:50:00,
2013-06-01 22:55:00,78.3,76.4,29.96,North,32767,0.0,0.0,94,0.00,,,0.00,Wunderground v.1.15,2013-06-02 03:55:00,
2013-06-01 23:00:00,78.3,76.4,29.96,North,32767,0.0,0.0,94,0.00,,,0.00,Wunderground v.1.15,2013-06-02 04:00:00,
2013-06-01 23:05:00,78.2,76.3,29.96,North,32767,0.0,0.0,94,0.00,,,0.00,Wunderground v.1.15,2013-06-02 04:05:00,
2013-06-01 23:15:00,78.3,76.4,29.96,North,32767,0.0,0.0,94,0.00,,,0.00,Wunderground v.1.15,2013-06-02 04:15:00,
2013-06-01 23:20:00,78.3,76.4,29.96,North,32767,0.0,0.0,94,0.00,,,0.00,Wunderground v.1.15,2013-06-02 04:20:00,
2013-06-01 23:25:00,78.3,76.4,29.96,North,32767,0.0,0.0,94,0.00,,,0.00,Wunderground v.1.15,2013-06-02 04:25:00,
2013-06-01 23:30:00,78.3,76.4,29.96,North,32767,0.0,0.0,94,0.00,,,0.00,Wunderground v.1.15,2013-06-02 04:30:00,
2013-06-01 23:35:00,78.3,76.4,29.97,North,32767,0.0,0.0,94,0.00,,,0.00,Wunderground v.1.15,2013-06-02 04:35:00,
2013-06-01 23:40:00,78.3,76.4,29.96,North,32767,0.0,0.0,94,0.00,,,0.00,Wunderground v.1.15,2013-06-02 04:40:00,
2013-06-01 23:45:00,78.3,76.4,29.96,North,32767,0.0,0.0,94,0.00,,,0.00,Wunderground v.1.15,2013-06-02 04:45:00,
2013-06-01 23:50:00,78.2,76.3,29.97,North,32767,0.0,0.0,94,0.00,,,0.00,Wunderground v.1.15,2013-06-02 04:50:00,
2013-06-01 23:55:00,78.2,76.3,29.97,North,32767,0.0,0.0,94,0.00,,,0.00,Wunderground v.1.15,2013-06-02 04:55:00,